When you browse on this site, cookies collect data to enhance your experience and personalize the content and advertising you see.
Visit our Privacy Policy to learn more. By continuing to use the site, you agree to this use of cookies and data.
  • Em Portugal
  • Lista de países
  • Para 7 dias
  • Temperatura da água
  • Mapas de satélite
  • Mapa do tempo
  • Widgets de tempo
  • user-avatar
    Iniciar Sessão

    Previsão horária em Ischgl

    Hoje, 27 Março, Quarta-feira

    Tempo Temperatura Precipitação Vento Pressão Humidade
    00:00 -14°C° 0 mm 1 m/s 571 mmHg 95%
    01:00 -15°C° 0 mm 1 m/s 571 mmHg 94%
    02:00 -15°C° 0 mm 1 m/s 571 mmHg 92%
    03:00 -15°C° 0 mm 1 m/s 571 mmHg 90%
    04:00 -15°C° 0 mm 1 m/s 570 mmHg 88%
    05:00 -14°C° 0 mm 1 m/s 571 mmHg 87%
    06:00 -14°C° 0 mm 1 m/s 571 mmHg 86%
    07:00 -13°C° 0 mm 1 m/s 572 mmHg 84%
    08:00 -12°C° 0 mm 2 m/s 573 mmHg 84%
    09:00 -9°C° 0 mm 2 m/s 574 mmHg 84%
    10:00 -8°C° 0 mm 3 m/s 575 mmHg 83%
    11:00 -7°C° 0 mm 3 m/s 576 mmHg 85%
    12:00 -7°C° 0 mm 3 m/s 576 mmHg 87%
    13:00 -6°C° 0 mm 3 m/s 576 mmHg 90%
    14:00 -6°C° 0 mm 3 m/s 576 mmHg 88%
    15:00 -6°C° 0 mm 3 m/s 576 mmHg 86%
    16:00 -6°C° 0 mm 3 m/s 576 mmHg 84%
    17:00 -6°C° 0 mm 2 m/s 575 mmHg 88%
    18:00 -8°C° 0 mm 2 m/s 575 mmHg 91%
    19:00 -9°C° 0 mm 2 m/s 575 mmHg 94%
    20:00 -10°C° 0 mm 2 m/s 574 mmHg 94%
    21:00 -10°C° 0 mm 1 m/s 574 mmHg 95%
    22:00 -11°C° 0 mm 1 m/s 574 mmHg 95%
    23:00 -12°C° 0 mm 1 m/s 574 mmHg 94%

    Amanhã, 28 Março, Quinta-feira

    Tempo Temperatura Precipitação Vento Pressão Humidade
    00:00 -12°C° 0 mm 1 m/s 574 mmHg 92%
    01:00 -13°C° 0 mm 1 m/s 573 mmHg 91%
    02:00 -13°C° 0 mm 1 m/s 573 mmHg 90%
    03:00 -13°C° 0 mm 1 m/s 573 mmHg 88%
    04:00 -13°C° 0 mm 1 m/s 573 mmHg 87%
    05:00 -13°C° 0 mm 1 m/s 573 mmHg 86%
    06:00 -12°C° 0 mm 1 m/s 574 mmHg 84%
    07:00 -12°C° 0 mm 1 m/s 574 mmHg 83%
    08:00 -10°C° 0 mm 2 m/s 575 mmHg 81%
    09:00 -7°C° 0 mm 2 m/s 577 mmHg 80%
    10:00 -5°C° 0 mm 2 m/s 578 mmHg 78%
    11:00 -4°C° 0 mm 2 m/s 578 mmHg 83%
    12:00 -4°C° 0 mm 2 m/s 578 mmHg 87%
    13:00 -3°C° 0 mm 2 m/s 578 mmHg 92%
    14:00 -3°C° 0 mm 2 m/s 578 mmHg 90%
    15:00 -3°C° 0 mm 2 m/s 578 mmHg 89%
    16:00 -3°C° 0 mm 2 m/s 578 mmHg 88%
    17:00 -4°C° 0 mm 2 m/s 577 mmHg 89%
    18:00 -5°C° 0 mm 2 m/s 577 mmHg 90%
    19:00 -6°C° 0 mm 1 m/s 577 mmHg 92%
    20:00 -7°C° 0 mm 1 m/s 576 mmHg 91%
    21:00 -8°C° 0 mm 1 m/s 576 mmHg 91%
    22:00 -9°C° 0 mm 1 m/s 576 mmHg 91%
    23:00 -9°C° 0 mm 1 m/s 576 mmHg 87%

    Depois de amanhã, 29 Março, Sexta-feira

    Tempo Temperatura Precipitação Vento Pressão Humidade
    00:00 -12°C° 0 mm 2 m/s 576 mmHg 84%
    01:00 -12°C° 0 mm 2 m/s 575 mmHg 80%
    02:00 -12°C° 0 mm 2 m/s 575 mmHg 79%
    03:00 -12°C° 0 mm 2 m/s 575 mmHg 79%
    04:00 -12°C° 0 mm 2 m/s 575 mmHg 78%
    05:00 -10°C° 0 mm 2 m/s 576 mmHg 79%
    06:00 -10°C° 0 mm 2 m/s 576 mmHg 80%
    07:00 -9°C° 0 mm 2 m/s 576 mmHg 82%
    08:00 -7°C° 0 mm 2 m/s 577 mmHg 82%
    09:00 -5°C° 0 mm 2 m/s 578 mmHg 83%
    10:00 -2°C° 0 mm 2 m/s 579 mmHg 83%
    11:00 -2°C° 0 mm 2 m/s 579 mmHg 83%
    12:00 +1°C° 0 mm 1 m/s 579 mmHg 83%
    13:00 +2°C° 0 mm 1 m/s 579 mmHg 83%
    14:00 +2°C° 0 mm 1 m/s 579 mmHg 82%
    15:00 +2°C° 0 mm 1 m/s 579 mmHg 82%
    16:00 +1°C° 0 mm 0 m/s 579 mmHg 82%
    17:00 -1°C° 0 mm 0 m/s 578 mmHg 77%
    18:00 -2°C° 0 mm 1 m/s 577 mmHg 72%
    19:00 -4°C° 0 mm 1 m/s 576 mmHg 68%
    20:00 -4°C° 0 mm 1 m/s 576 mmHg 64%
    21:00 -6°C° 0 mm 1 m/s 576 mmHg 61%
    22:00 -7°C° 0 mm 2 m/s 576 mmHg 58%
    23:00 -8°C° 0 mm 2 m/s 576 mmHg 56%

    30 Março, Sábado

    Tempo Temperatura Precipitação Vento Pressão Humidade
    00:00 -8°C° 0 mm 2 m/s 576 mmHg 55%
    01:00 -8°C° 0 mm 2 m/s 575 mmHg 54%
    02:00 -8°C° 0 mm 2 m/s 575 mmHg 53%
    03:00 -8°C° 0 mm 2 m/s 575 mmHg 52%
    04:00 -8°C° 0 mm 2 m/s 575 mmHg 51%
    05:00 -7°C° 0 mm 1 m/s 575 mmHg 50%
    06:00 -7°C° 0 mm 1 m/s 575 mmHg 49%
    07:00 -6°C° 0 mm 1 m/s 575 mmHg 48%
    08:00 -3°C° 0 mm 1 m/s 576 mmHg 56%
    09:00 0°C° 0 mm 1 m/s 577 mmHg 65%
    10:00 +2°C° 0 mm 1 m/s 578 mmHg 73%
    11:00 +3°C° 0 mm 1 m/s 578 mmHg 72%
    12:00 +3°C° 0 mm 1 m/s 578 mmHg 71%
    13:00 +4°C° 0 mm 1 m/s 578 mmHg 71%
    14:00 +4°C° 0 mm 1 m/s 577 mmHg 70%
    15:00 +4°C° 0 mm 1 m/s 577 mmHg 69%
    16:00 +3°C° 0 mm 0 m/s 577 mmHg 68%
    17:00 +1°C° 0 mm 0 m/s 575 mmHg 66%
    18:00 -1°C° 0 mm 0 m/s 574 mmHg 65%
    19:00 -4°C° 0 mm 0 m/s 573 mmHg 64%
    20:00 -3°C° 0 mm 1 m/s 573 mmHg 63%
    21:00 -3°C° 0 mm 1 m/s 573 mmHg 62%
    22:00 -4°C° 0 mm 1 m/s 573 mmHg 61%
    23:00 -4°C° 0 mm 1 m/s 573 mmHg 61%

    31 Março, Domingo

    Tempo Temperatura Precipitação Vento Pressão Humidade
    00:00 -4°C° 0 mm 1 m/s 573 mmHg 62%
    01:00 -4°C° 0 mm 1 m/s 573 mmHg 62%
    02:00 -6°C° 0 mm 1 m/s 572 mmHg 63%
    03:00 -6°C° 0 mm 1 m/s 572 mmHg 63%
    04:00 -6°C° 0 mm 1 m/s 572 mmHg 64%
    05:00 -6°C° 0 mm 1 m/s 572 mmHg 66%
    06:00 -4°C° 0 mm 1 m/s 572 mmHg 67%
    07:00 -4°C° 0 mm 1 m/s 572 mmHg 68%
    08:00 -2°C° 0 mm 1 m/s 573 mmHg 71%
    09:00 0°C° 0 mm 1 m/s 573 mmHg 73%
    10:00 +1°C° 0 mm 1 m/s 574 mmHg 75%
    11:00 +2°C° 0 mm 1 m/s 574 mmHg 75%
    12:00 +2°C° 0 mm 1 m/s 574 mmHg 74%
    13:00 +3°C° 0 mm 1 m/s 573 mmHg 73%
    14:00 +3°C° 0.1 mm 1 m/s 573 mmHg 74%
    15:00 +3°C° 0.1 mm 1 m/s 573 mmHg 76%
    16:00 +2°C° 0.1 mm 2 m/s 573 mmHg 78%
    17:00 +1°C° 0.1 mm 1 m/s 572 mmHg 83%
    18:00 -1°C° 0.1 mm 1 m/s 571 mmHg 88%
    19:00 -2°C° 0.1 mm 1 m/s 571 mmHg 94%
    20:00 -2°C° 0.1 mm 1 m/s 571 mmHg 95%
    21:00 -2°C° 0.1 mm 1 m/s 572 mmHg 96%
    22:00 -2°C° 0.1 mm 1 m/s 572 mmHg 97%
    23:00 -2°C° 0.1 mm 1 m/s 572 mmHg 97%

    1 Abril, Segunda-feira

    Tempo Temperatura Precipitação Vento Pressão Humidade
    00:00 -2°C° 0.1 mm 1 m/s 572 mmHg 96%
    01:00 -3°C° 0.1 mm 1 m/s 572 mmHg 96%
    02:00 -3°C° 0 mm 1 m/s 572 mmHg 96%
    03:00 -3°C° 0 mm 1 m/s 572 mmHg 95%
    04:00 -3°C° 0 mm 1 m/s 572 mmHg 95%
    05:00 -3°C° 0 mm 1 m/s 572 mmHg 94%
    06:00 -3°C° 0 mm 1 m/s 572 mmHg 92%
    07:00 -3°C° 0 mm 1 m/s 572 mmHg 91%
    08:00 -1°C° 0 mm 1 m/s 572 mmHg 84%
    09:00 0°C° 0 mm 1 m/s 573 mmHg 78%
    10:00 +1°C° 0 mm 1 m/s 574 mmHg 72%
    11:00 +2°C° 0 mm 1 m/s 574 mmHg 69%
    12:00 +3°C° 0 mm 1 m/s 574 mmHg 67%
    13:00 +3°C° 0 mm 1 m/s 574 mmHg 64%
    14:00 +3°C° 0.2 mm 1 m/s 573 mmHg 65%
    15:00 +3°C° 0.2 mm 1 m/s 573 mmHg 66%
    16:00 +3°C° 0.2 mm 1 m/s 573 mmHg 67%
    17:00 +2°C° 0.3 mm 1 m/s 572 mmHg 74%
    18:00 0°C° 0.3 mm 1 m/s 571 mmHg 80%
    19:00 -1°C° 0.3 mm 1 m/s 571 mmHg 86%
    20:00 -1°C° 0.1 mm 1 m/s 571 mmHg 87%
    21:00 -2°C° 0.1 mm 1 m/s 571 mmHg 87%
    22:00 -4°C° 0.1 mm 2 m/s 571 mmHg 87%
    23:00 -4°C° 0 mm 2 m/s 571 mmHg 87%
    Mostrar mais